Location: Brompton
(51.4000°N, 0.5333°E)
Time: 01:50:49
(UTC+00:00)

Cosmos 1461 - Pass Details

Date: 11 May 2021
Orbit: 509 x 654 km, 65.0° (Epoch: 13 June)

Event Time Altitude Azimuth Distance (km) Brightness Sun altitude
Exits shadow 23:07:24 46° 152° (SSE) 880 3.4 -19.7°
Maximum altitude 23:08:05 50° 123° (ESE) 832 3.4 -19.7°
Drops below altitude 10° 23:12:32 10° 49° (NE) 2,031 6.1 -19.9°
Sets 23:14:51 0° 45° (NE) 2,925 7.0 -19.9°
